Time,TemperatureF,DewpointF,PressureIn,WindDirection,WindDirectionDegrees,WindSpeedMPH,WindSpeedGustMPH,Humidity,HourlyPrecipIn,Conditions,Clouds,dailyrainin,SoftwareType,DateUTC
2013-05-12 00:02:00,45.0,27.0,30.12,NNW,328,2.0,5.0,49,0.00,,,0.02,,2013-05-12 05:02:00,
2013-05-12 00:11:00,45.0,27.0,30.12,NNW,328,2.0,5.0,49,0.00,,,0.02,,2013-05-12 05:11:00,
2013-05-12 00:22:00,44.0,27.0,30.12,NNE,17,2.0,6.0,51,0.00,,,0.02,,2013-05-12 05:22:00,
2013-05-12 00:32:00,44.0,27.0,30.12,NNW,332,1.0,5.0,51,0.00,,,0.02,,2013-05-12 05:32:00,
2013-05-12 00:42:00,44.0,27.0,30.12,NNW,332,1.0,5.0,51,0.00,,,0.02,,2013-05-12 05:42:00,
2013-05-12 00:52:00,44.0,28.0,30.13,NW,323,0.0,4.0,53,0.00,,,0.02,,2013-05-12 05:52:00,
2013-05-12 01:01:00,43.0,28.0,30.13,NNW,338,3.0,5.0,54,0.00,,,0.02,,2013-05-12 06:01:00,
2013-05-12 01:11:00,43.0,28.0,30.13,NNW,338,3.0,5.0,54,0.00,,,0.02,,2013-05-12 06:11:00,
2013-05-12 01:21:00,43.0,28.0,30.13,NNW,341,1.0,3.0,55,0.00,,,0.02,,2013-05-12 06:21:00,
2013-05-12 01:32:00,43.0,28.0,30.13,NNW,341,0.0,3.0,56,0.00,,,0.02,,2013-05-12 06:32:00,
2013-05-12 01:42:00,42.0,28.0,30.13,NNW,341,0.0,0.0,57,0.00,,,0.02,,2013-05-12 06:42:00,
2013-05-12 01:52:00,42.0,28.0,30.13,NNW,341,0.0,0.0,57,0.00,,,0.02,,2013-05-12 06:52:00,
2013-05-12 02:01:00,41.0,29.0,30.13,NNW,341,0.0,1.0,63,0.00,,,0.02,,2013-05-12 07:01:00,
2013-05-12 02:11:00,41.0,29.0,30.13,NNW,341,0.0,1.0,63,0.00,,,0.02,,2013-05-12 07:11:00,
2013-05-12 02:21:00,40.0,30.0,30.13,NNW,341,0.0,2.0,67,0.00,,,0.02,,2013-05-12 07:21:00,
2013-05-12 02:32:00,40.0,31.0,30.13,NNW,331,0.0,3.0,69,0.00,,,0.02,,2013-05-12 07:32:00,
2013-05-12 02:42:00,40.0,31.0,30.13,NNW,331,0.0,3.0,69,0.00,,,0.02,,2013-05-12 07:42:00,
2013-05-12 02:52:00,39.0,29.0,30.13,NNW,331,0.0,2.0,68,0.00,,,0.02,,2013-05-12 07:52:00,
2013-05-12 03:02:00,40.0,30.0,30.14,NNW,331,0.0,1.0,67,0.00,,,0.02,,2013-05-12 08:02:00,
2013-05-12 03:11:00,40.0,30.0,30.14,NNW,331,0.0,1.0,67,0.00,,,0.02,,2013-05-12 08:11:00,
2013-05-12 03:21:00,40.0,29.0,30.14,NNW,348,0.0,3.0,64,0.00,,,0.02,,2013-05-12 08:21:00,
2013-05-12 03:32:00,40.0,28.0,30.14,NW,307,1.0,3.0,62,0.00,,,0.02,,2013-05-12 08:32:00,
2013-05-12 03:41:00,40.0,28.0,30.14,NW,307,1.0,3.0,62,0.00,,,0.02,,2013-05-12 08:41:00,
2013-05-12 03:53:00,41.0,29.0,30.14,NNW,338,0.0,5.0,61,0.00,,,0.02,,2013-05-12 08:53:00,
2013-05-12 04:01:00,41.0,28.0,30.14,NW,324,1.0,3.0,60,0.00,,,0.02,,2013-05-12 09:01:00,
2013-05-12 04:11:00,41.0,28.0,30.14,NW,324,1.0,3.0,60,0.00,,,0.02,,2013-05-12 09:11:00,
2013-05-12 04:21:00,41.0,28.0,30.14,NW,310,1.0,5.0,60,0.00,,,0.02,,2013-05-12 09:21:00,
2013-05-12 04:33:00,41.0,28.0,30.14,NW,315,1.0,4.0,60,0.00,,,0.02,,2013-05-12 09:33:00,
2013-05-12 04:42:00,41.0,28.0,30.14,NW,315,1.0,4.0,60,0.00,,,0.02,,2013-05-12 09:42:00,
2013-05-12 04:53:00,40.0,27.0,30.14,North,5,1.0,4.0,60,0.00,,,0.02,,2013-05-12 09:53:00,
2013-05-12 05:03:00,40.0,28.0,30.14,NNW,337,1.0,4.0,61,0.00,,,0.02,,2013-05-12 10:03:00,
2013-05-12 05:12:00,40.0,28.0,30.14,NNW,337,1.0,4.0,61,0.00,,,0.02,,2013-05-12 10:12:00,
2013-05-12 05:22:00,40.0,27.0,30.14,North,355,3.0,5.0,60,0.00,,,0.02,,2013-05-12 10:22:00,
2013-05-12 05:33:00,40.0,28.0,30.14,NNW,344,2.0,6.0,61,0.00,,,0.02,,2013-05-12 10:33:00,
2013-05-12 05:42:00,40.0,28.0,30.14,NNW,344,2.0,6.0,61,0.00,,,0.02,,2013-05-12 10:42:00,
2013-05-12 05:52:00,39.0,27.0,30.14,NNW,329,0.0,4.0,62,0.00,,,0.02,,2013-05-12 10:52:00,
2013-05-12 06:02:00,39.0,29.0,30.14,NNW,333,3.0,6.0,66,0.00,,,0.02,,2013-05-12 11:02:00,
2013-05-12 06:12:00,39.0,29.0,30.14,NNW,333,3.0,6.0,66,0.00,,,0.02,,2013-05-12 11:12:00,
2013-05-12 06:22:00,39.0,27.0,30.14,NNW,338,1.0,7.0,63,0.00,,,0.01,,2013-05-12 11:22:00,
2013-05-12 06:32:00,39.0,27.0,30.14,NNW,346,2.0,6.0,62,0.00,,,0.01,,2013-05-12 11:32:00,
2013-05-12 06:42:00,39.0,27.0,30.14,NNW,346,2.0,6.0,62,0.00,,,0.01,,2013-05-12 11:42:00,
2013-05-12 06:52:00,39.0,28.0,30.15,NNE,14,1.0,5.0,64,0.00,,,0.01,,2013-05-12 11:52:00,
2013-05-12 07:01:00,40.0,28.0,30.16,NNW,348,3.0,9.0,61,0.00,,,0.01,,2013-05-12 12:01:00,
2013-05-12 07:11:00,40.0,28.0,30.16,NNW,348,3.0,9.0,61,0.00,,,0.01,,2013-05-12 12:11:00,
2013-05-12 07:21:00,40.0,27.0,30.16,NNW,347,3.0,6.0,60,0.00,,,0.01,,2013-05-12 12:21:00,
2013-05-12 07:32:00,41.0,27.0,30.16,North,355,5.0,11.0,56,0.00,,,0.01,,2013-05-12 12:32:00,
2013-05-12 07:41:00,41.0,27.0,30.16,North,355,5.0,11.0,56,0.00,,,0.01,,2013-05-12 12:41:00,
2013-05-12 07:52:00,42.0,28.0,30.17,NNW,340,4.0,8.0,57,0.00,,,0.01,,2013-05-12 12:52:00,
2013-05-12 08:01:00,43.0,28.0,30.17,NW,310,2.0,10.0,54,0.00,,,0.01,,2013-05-12 13:01:00,
2013-05-12 08:11:00,43.0,28.0,30.17,NW,310,2.0,10.0,54,0.00,,,0.01,,2013-05-12 13:11:00,
2013-05-12 08:21:00,44.0,28.0,30.17,North,349,5.0,10.0,53,0.00,,,0.00,,2013-05-12 13:21:00,
2013-05-12 08:32:00,44.0,29.0,30.17,NNW,342,0.0,10.0,55,0.00,,,0.00,,2013-05-12 13:32:00,
2013-05-12 08:41:00,44.0,29.0,30.17,NNW,342,0.0,10.0,55,0.00,,,0.00,,2013-05-12 13:41:00,
2013-05-12 08:52:00,45.0,28.0,30.18,North,355,4.0,8.0,52,0.00,,,0.00,,2013-05-12 13:52:00,
2013-05-12 09:01:00,46.0,28.0,30.18,NW,307,5.0,14.0,50,0.00,,,0.00,,2013-05-12 14:01:00,
2013-05-12 09:11:00,46.0,28.0,30.18,NW,307,5.0,14.0,50,0.00,,,0.00,,2013-05-12 14:11:00,
2013-05-12 09:21:00,46.0,28.0,30.18,NNW,341,4.0,9.0,49,0.00,,,0.00,,2013-05-12 14:21:00,
2013-05-12 09:31:00,47.0,27.0,30.18,NW,321,4.0,10.0,46,0.00,,,0.00,,2013-05-12 14:31:00,
2013-05-12 09:42:00,48.0,27.0,30.18,NW,318,6.0,14.0,43,0.00,,,0.00,,2013-05-12 14:42:00,
2013-05-12 09:52:00,48.0,27.0,30.18,NW,318,6.0,14.0,43,0.00,,,0.00,,2013-05-12 14:52:00,
2013-05-12 10:01:00,49.0,30.0,30.18,NNW,343,2.0,14.0,47,0.00,,,0.00,,2013-05-12 15:01:00,
2013-05-12 10:11:00,49.0,30.0,30.18,NNW,343,2.0,14.0,47,0.00,,,0.00,,2013-05-12 15:11:00,
2013-05-12 10:21:00,49.0,26.0,30.19,NNW,346,6.0,19.0,41,0.00,,,0.00,,2013-05-12 15:21:00,
2013-05-12 10:34:00,50.0,28.0,30.19,WNW,292,7.0,15.0,43,0.00,,,0.00,,2013-05-12 15:34:00,
2013-05-12 10:42:00,50.0,28.0,30.19,WNW,292,7.0,15.0,43,0.00,,,0.00,,2013-05-12 15:42:00,
2013-05-12 10:53:00,50.0,27.0,30.19,North,5,2.0,12.0,41,0.00,,,0.00,,2013-05-12 15:53:00,
2013-05-12 11:02:00,51.0,24.0,30.19,NNW,331,6.0,14.0,35,0.00,,,0.00,,2013-05-12 16:02:00,
2013-05-12 11:12:00,51.0,24.0,30.19,NNW,331,6.0,14.0,35,0.00,,,0.00,,2013-05-12 16:12:00,
2013-05-12 11:23:00,51.0,24.0,30.19,WNW,292,8.0,16.0,35,0.00,,,0.00,,2013-05-12 16:23:00,
2013-05-12 11:32:00,52.0,27.0,30.19,North,355,5.0,15.0,37,0.00,,,0.00,,2013-05-12 16:32:00,
2013-05-12 11:42:00,52.0,27.0,30.19,North,355,5.0,15.0,37,0.00,,,0.00,,2013-05-12 16:42:00,
2013-05-12 11:52:00,52.0,28.0,30.19,NNW,340,7.0,13.0,39,0.00,,,0.00,,2013-05-12 16:52:00,
2013-05-12 12:02:00,52.0,27.0,30.19,NNW,348,6.0,16.0,37,0.00,,,0.00,,2013-05-12 17:02:00,
2013-05-12 12:12:00,52.0,27.0,30.19,NNW,348,6.0,16.0,37,0.00,,,0.00,,2013-05-12 17:12:00,
2013-05-12 12:22:00,54.0,31.0,30.19,NNW,338,3.0,8.0,42,0.00,,,0.00,,2013-05-12 17:22:00,
2013-05-12 12:32:00,54.0,28.0,30.18,NNW,336,7.0,11.0,36,0.00,,,0.00,,2013-05-12 17:32:00,
2013-05-12 12:42:00,54.0,28.0,30.18,NNW,336,7.0,11.0,36,0.00,,,0.00,,2013-05-12 17:42:00,
2013-05-12 12:53:00,54.0,27.0,30.18,NNW,331,7.0,15.0,35,0.00,,,0.00,,2013-05-12 17:53:00,
2013-05-12 13:01:00,54.0,30.0,30.18,NNW,333,7.0,15.0,39,0.00,,,0.00,,2013-05-12 18:01:00,
2013-05-12 13:12:00,54.0,30.0,30.18,NNW,333,7.0,15.0,39,0.00,,,0.00,,2013-05-12 18:12:00,
2013-05-12 13:22:00,55.0,27.0,30.17,NNW,328,5.0,16.0,34,0.00,,,0.00,,2013-05-12 18:22:00,
2013-05-12 13:32:00,54.0,26.0,30.17,NW,312,6.0,18.0,34,0.00,,,0.00,,2013-05-12 18:32:00,
2013-05-12 13:42:00,54.0,26.0,30.17,NW,312,6.0,18.0,34,0.00,,,0.00,,2013-05-12 18:42:00,
2013-05-12 13:52:00,55.0,29.0,30.17,NNW,327,5.0,14.0,36,0.00,,,0.00,,2013-05-12 18:52:00,
2013-05-12 14:01:00,56.0,27.0,30.17,NW,317,5.0,17.0,33,0.00,,,0.00,,2013-05-12 19:01:00,
2013-05-12 14:11:00,56.0,27.0,30.17,NW,317,5.0,17.0,33,0.00,,,0.00,,2013-05-12 19:11:00,
2013-05-12 14:21:00,56.0,23.0,30.16,NNW,344,6.0,15.0,28,0.00,,,0.00,,2013-05-12 19:21:00,
2013-05-12 14:32:00,57.0,27.0,30.16,WNW,289,5.0,11.0,32,0.00,,,0.00,,2013-05-12 19:32:00,
2013-05-12 14:42:00,57.0,25.0,30.15,NNW,331,6.0,14.0,29,0.00,,,0.00,,2013-05-12 19:42:00,
2013-05-12 14:52:00,57.0,25.0,30.15,NNW,331,6.0,14.0,29,0.00,,,0.00,,2013-05-12 19:52:00,
2013-05-12 15:02:00,57.0,27.0,30.15,NNW,331,4.0,13.0,31,0.00,,,0.00,,2013-05-12 20:02:00,
2013-05-12 15:11:00,57.0,27.0,30.15,NNW,331,4.0,13.0,31,0.00,,,0.00,,2013-05-12 20:11:00,
2013-05-12 15:21:00,58.0,24.0,30.14,West,279,7.0,15.0,27,0.00,,,0.00,,2013-05-12 20:21:00,
2013-05-12 15:32:00,58.0,27.0,30.14,NNW,339,2.0,9.0,30,0.00,,,0.00,,2013-05-12 20:32:00,
2013-05-12 15:42:00,58.0,27.0,30.14,NNW,339,2.0,9.0,30,0.00,,,0.00,,2013-05-12 20:42:00,
2013-05-12 15:52:00,58.0,22.0,30.13,NW,306,6.0,14.0,25,0.00,,,0.00,,2013-05-12 20:52:00,
2013-05-12 16:01:00,59.0,26.0,30.13,WNW,301,5.0,13.0,28,0.00,,,0.00,,2013-05-12 21:01:00,
2013-05-12 16:11:00,59.0,26.0,30.13,WNW,301,5.0,13.0,28,0.00,,,0.00,,2013-05-12 21:11:00,
2013-05-12 16:21:00,59.0,26.0,30.12,NNW,347,3.0,13.0,28,0.00,,,0.00,,2013-05-12 21:21:00,
2013-05-12 16:33:00,59.0,22.0,30.11,NNW,340,4.0,14.0,24,0.00,,,0.00,,2013-05-12 21:33:00,
2013-05-12 16:42:00,59.0,22.0,30.11,NNW,340,4.0,14.0,24,0.00,,,0.00,,2013-05-12 21:42:00,
2013-05-12 16:53:00,59.0,25.0,30.11,NW,320,3.0,15.0,27,0.00,,,0.00,,2013-05-12 21:53:00,
2013-05-12 17:02:00,59.0,21.0,30.11,NNW,347,8.0,20.0,23,0.00,,,0.00,,2013-05-12 22:02:00,
2013-05-12 17:12:00,59.0,21.0,30.11,NNW,347,8.0,20.0,23,0.00,,,0.00,,2013-05-12 22:12:00,
2013-05-12 17:23:00,59.0,21.0,30.11,NNW,328,6.0,13.0,23,0.00,,,0.00,,2013-05-12 22:23:00,
2013-05-12 17:33:00,59.0,24.0,30.11,WNW,298,7.0,13.0,26,0.00,,,0.00,,2013-05-12 22:33:00,
2013-05-12 17:42:00,59.0,24.0,30.11,WNW,298,7.0,13.0,26,0.00,,,0.00,,2013-05-12 22:42:00,
2013-05-12 17:52:00,59.0,25.0,30.11,NNW,333,4.0,12.0,27,0.00,,,0.00,,2013-05-12 22:52:00,
2013-05-12 18:02:00,59.0,22.0,30.11,NW,317,5.0,11.0,24,0.00,,,0.00,,2013-05-12 23:02:00,
2013-05-12 18:12:00,59.0,22.0,30.11,NW,317,5.0,11.0,24,0.00,,,0.00,,2013-05-12 23:12:00,
2013-05-12 18:22:00,59.0,18.0,30.10,North,351,4.0,15.0,20,0.00,,,0.00,,2013-05-12 23:22:00,
2013-05-12 18:32:00,58.0,19.0,30.10,West,260,4.0,12.0,22,0.00,,,0.00,,2013-05-12 23:32:00,
2013-05-12 18:42:00,58.0,19.0,30.10,West,260,4.0,12.0,22,0.00,,,0.00,,2013-05-12 23:42:00,
2013-05-12 18:52:00,57.0,19.0,30.10,North,355,5.0,14.0,22,0.00,,,0.00,,2013-05-12 23:52:00,
2013-05-12 19:01:00,57.0,21.0,30.10,NW,319,4.0,8.0,24,0.00,,,0.00,,2013-05-13 00:01:00,
2013-05-12 19:11:00,57.0,21.0,30.10,NW,319,4.0,8.0,24,0.00,,,0.00,,2013-05-13 00:11:00,
2013-05-12 19:21:00,57.0,23.0,30.09,NNW,336,3.0,7.0,27,0.00,,,0.00,,2013-05-13 00:21:00,
2013-05-12 19:32:00,56.0,23.0,30.09,NNW,347,3.0,10.0,27,0.00,,,0.00,,2013-05-13 00:32:00,
2013-05-12 19:42:00,56.0,23.0,30.09,NNW,347,3.0,10.0,27,0.00,,,0.00,,2013-05-13 00:42:00,
2013-05-12 19:52:00,55.0,22.0,30.10,NNW,336,3.0,7.0,27,0.00,,,0.00,,2013-05-13 00:52:00,
2013-05-12 20:01:00,54.0,22.0,30.10,NNW,348,2.0,7.0,29,0.00,,,0.00,,2013-05-13 01:01:00,
2013-05-12 20:11:00,54.0,22.0,30.10,NNW,348,2.0,7.0,29,0.00,,,0.00,,2013-05-13 01:11:00,
2013-05-12 20:22:00,54.0,22.0,30.10,North,355,0.0,7.0,29,0.00,,,0.00,,2013-05-13 01:22:00,
2013-05-12 20:31:00,53.0,22.0,30.10,NW,315,0.0,5.0,30,0.00,,,0.00,,2013-05-13 01:31:00,
2013-05-12 20:41:00,53.0,22.0,30.10,NW,315,0.0,5.0,30,0.00,,,0.00,,2013-05-13 01:41:00,
2013-05-12 20:52:00,53.0,23.0,30.11,NW,323,1.0,4.0,31,0.00,,,0.00,,2013-05-13 01:52:00,
2013-05-12 21:01:00,52.0,27.0,30.11,NW,323,0.0,0.0,38,0.00,,,0.00,,2013-05-13 02:01:00,
2013-05-12 21:11:00,52.0,27.0,30.11,NW,323,0.0,0.0,38,0.00,,,0.00,,2013-05-13 02:11:00,
2013-05-12 21:21:00,50.0,28.0,30.11,NW,323,0.0,0.0,42,0.00,,,0.00,,2013-05-13 02:21:00,
2013-05-12 21:31:00,48.0,28.0,30.12,NW,323,0.0,0.0,46,0.00,,,0.00,,2013-05-13 02:31:00,
2013-05-12 21:41:00,48.0,28.0,30.12,NW,323,0.0,0.0,46,0.00,,,0.00,,2013-05-13 02:41:00,
2013-05-12 21:52:00,47.0,30.0,30.12,NW,323,0.0,1.0,52,0.00,,,0.00,,2013-05-13 02:52:00,
2013-05-12 22:01:00,46.0,33.0,30.12,NW,323,0.0,0.0,60,0.00,,,0.00,,2013-05-13 03:01:00,
2013-05-12 22:11:00,46.0,33.0,30.12,NW,323,0.0,0.0,60,0.00,,,0.00,,2013-05-13 03:11:00,
2013-05-12 22:21:00,44.0,32.0,30.12,NW,323,0.0,1.0,63,0.00,,,0.00,,2013-05-13 03:21:00,
2013-05-12 22:32:00,43.0,33.0,30.12,NW,323,0.0,1.0,67,0.00,,,0.00,,2013-05-13 03:32:00,
2013-05-12 22:42:00,43.0,33.0,30.12,NW,323,0.0,1.0,67,0.00,,,0.00,,2013-05-13 03:42:00,
2013-05-12 22:53:00,43.0,34.0,30.13,NW,323,0.0,0.0,70,0.00,,,0.00,,2013-05-13 03:53:00,
2013-05-12 23:02:00,42.0,34.0,30.12,NW,323,0.0,1.0,73,0.00,,,0.00,,2013-05-13 04:02:00,
2013-05-12 23:12:00,42.0,34.0,30.12,NW,323,0.0,1.0,73,0.00,,,0.00,,2013-05-13 04:12:00,
2013-05-12 23:23:00,41.0,34.0,30.12,NW,323,0.0,1.0,75,0.00,,,0.00,,2013-05-13 04:23:00,
2013-05-12 23:32:00,41.0,34.0,30.12,NW,323,0.0,1.0,76,0.00,,,0.00,,2013-05-13 04:32:00,
2013-05-12 23:42:00,41.0,34.0,30.12,NW,323,0.0,1.0,76,0.00,,,0.00,,2013-05-13 04:42:00,
2013-05-12 23:52:00,40.0,33.0,30.13,NW,323,0.0,0.0,77,0.00,,,0.00,,2013-05-13 04:52:00,